Regional Weather Roundup
Issued by NWS Mt. Holly, NJ

Home | Current Version | Previous Version | Text Only | Print | Product List | Glossary On
Versions: 1 2 3 4 5 6 7 8 9 10 11 12 13 14 15 16 17 18 19 20 21 22 23 24 25 26 27 28 29 30 31 32 33 34 35 36 37 38 39 40 41 42 43 44 45 46 47 48 49
000
ASUS41 KPHI 220810
RWRPHI

REGIONAL WEATHER ROUNDUP
NATIONAL WEATHER SERVICE MOUNT HOLLY NJ
300 AM EST MON DEC 22 2014

NOTE:  "FAIR" INDICATES FEW OR NO CLOUDS BELOW 12,000 FEET WITH NO
SIGNIFICANT WEATHER AND/OR OBSTRUCTIONS TO VISIBILITY.

 * = STATION DOES NOT REPORT PRECIPITATION (E.G. RAIN, SNOW, ETC.)
        OR FOG.

NJZ015>026-220900-
SOUTHERN NEW JERSEY

CITY           SKY/WX    TMP DP  RH WIND       PRES   REMARKS
POMONA         PTCLDY    23  19  85 CALM      30.33R
RIO GRANDE*    MOCLDY    28  21  74 N5        30.31F WCI  23
MILLVILLE      PTCLDY    22  20  92 CALM      30.33S
WRIGHTSTOWN    CLOUDY    33  27  77 NW2       30.30F
MOUNT HOLLY    CLOUDY    30  26  85 CALM      30.33F
TRENTON        CLOUDY    33  25  72 CALM      30.33R

$$
NJZ001>014-220900-
NORTHERN NEW JERSEY

CITY           SKY/WX    TMP DP  RH WIND       PRES   REMARKS
SUSSEX         CLOUDY    31  26  82 NE6       30.33R WCI  25
ANDOVER*         N/A     31  27  85 CALM      30.32R
MORRISTOWN     CLOUDY    36  28  75 CALM      30.34R
NEWARK         CLOUDY    35  30  82 N5        30.34R WCI  31
TETERBORO      CLOUDY    35  29  78 N3        30.34R
CALDWELL       CLOUDY    33  28  81 CALM      30.34R
SOMERVILLE     CLOUDY    35  28  75 CALM      30.33R
ALLAIRE*       CLOUDY    36  27  69 NW7       30.33S WCI  30
TOMS RIVER*    CLOUDY    34  28  80 CALM      30.33S

$$
PAZ043-044-047-054-055-060>062-066>071-220900-
EASTERN PENNSYLVANIA

CITY           SKY/WX    TMP DP  RH WIND       PRES   REMARKS
PHILADELPHIA   PTCLDY    29  21  72 NW3       30.35S
NORTH PHILA    CLOUDY    33  24  69 N3        30.35S
BLUE BELL      CLOUDY    28  25  86 CALM      30.32F
DOYLESTOWN     CLOUDY    30  25  81 CALM      30.32R
QUAKERTOWN*    CLOUDY    28  25  86 CALM      30.32F
POTTSTOWN      CLOUDY    23  20  88 CALM      30.34S
LANCASTER      CLEAR     21  18  88 CALM      30.32S FOG
COATESVILLE    CLEAR     27  23  86 CALM      30.31S
READING        CLEAR     21  18  88 CALM      30.33S
ALLENTOWN      CLOUDY    30  23  75 CALM      30.33R
MOUNT POCONO   LGT SNOW  26  24  92 E6        30.24R FOG     WCI  19
HAZLETON       CLOUDY    28  25  86 CALM      30.28S
WILKES BARRE   CLOUDY    31  22  69 CALM      30.29S

$$
DEZALL-MDZ008-012-015-019-020-220900-
DELAWARE AND EASTERN MARYLAND

CITY           SKY/WX    TMP DP  RH WIND       PRES   REMARKS
WILMINGTON     CLEAR     24  20  84 NW5       30.35R WCI  18
DOVER          MOCLDY    25  24  96 N7        30.30F WCI  17
GEORGETOWN     MOCLDY    27  23  85 CALM      30.32S
EASTON         CLOUDY    30  27  88 NE5       30.35F WCI  25
PATUXENT       CLOUDY    34  28  79 NE5       30.31F WCI  30
OCEAN CITY     MOCLDY    27  24  89 NW3       30.31S FOG
WALLOPS ISLAND MOCLDY    31  26  82 N7        30.30F WCI  24
CAMBRIDGE      CLOUDY    32  27  80 CALM      30.32R
SALISBURY      CLOUDY    31  25  78 CALM      30.31S

$$
PAZ001-021-NYZ056-072-MDZ011-DCZ001-220900-
OTHER NEARBY LOCATIONS

CITY           SKY/WX    TMP DP  RH WIND       PRES   REMARKS
HARRISBURG     PTCLDY    21  18  88 CALM      30.33S
STATE COLLEGE  PTCLDY    20  18  92 CALM      30.25F
WILLIAMSPORT   CLEAR     22  17  81 CALM      30.32R
BINGHAMTON     CLOUDY    26  22  84 S3        30.25S
NEW YORK CITY  CLOUDY    35  29  78 VRB3      30.35S
BALTIMORE      MOCLDY    26  22  84 CALM      30.32F
WASHINGTON DC  CLOUDY    34  24  67 NE7       30.33F WCI  28

$$


USA.gov is the U.S. government's official web portal to all federal, state and local government web resources and services.